Pittsfield, MA

2:02 PM EDT on May 22, 2017 (GMT -0400)
Pittsfield Municipal

Weather History for KPSF - March, 2013

Change the Weather History Date:

Tuesday, March 26, 2013

  Actual Average Record
Temperature  
Mean Temperature 34 °F 35 °F  
Max Temperature 42 °F 46 °F 69 °F (1945)
Min Temperature 26 °F 25 °F -5 °F (1960)
Degree Days  
Heating Degree Days 31 30  
Month to date heating degree days 922 885  
Since 1 July heating degree days 5861 6265  
Cooling Degree Days 0 0  
Month to date cooling degree days 0 0  
Year to date cooling degree days 0 0  
Moisture  
Dew Point 21 °F    
Average Humidity 58    
Maximum Humidity 78    
Minimum Humidity 37    
Precipitation  
Precipitation 0.00 in 0.14 in 1.08 in (2002)
Month to date precipitation 1.67 2.68  
Year to date precipitation 5.30 8.28  
Sea Level Pressure  
Sea Level Pressure 29.69 in    
Wind  
Wind Speed 5 mph (NW)    
Max Wind Speed 20 mph    
Max Gust Speed 25 mph    
Visibility 10 miles    
Events      
T = Trace of Precipitation, MM = Missing Value Source: NWS Daily Summary

Daily Weather History Graph

Daily Weather History Graph

Search for Another Location

Airport or City:

Trip Planner

Search our weather history database for the weather conditions in past years. The results will help you decide how hot, cold, wet, or windy it might be!

Date:

Astronomy

Mar. 26, 2013 Rise Set
Actual Time 6:45 AM EDT 7:12 PM EDT
Civil Twilight 6:17 AM EDT 7:40 PM EDT
Nautical Twilight 5:44 AM EDT 8:14 PM EDT
Astronomical Twilight 5:10 AM EDT 8:48 PM EDT
Moon 6:46 PM EDT (3/26) 6:01 AM EDT (3/26)
Length of Visible Light 13h 23m
Length of Day
12h 26m
Waxing Gibbous, 99% of the Moon is Illuminated
Mar 26
Waxing Gibbous
Mar 27
Full
Apr 3
Last Quarter
Apr 10
New
Apr 18
First Quarter

Hourly Weather History & Observations

Time (EDT) Temp. Windchill Dew Point Humidity Pressure Visibility Wind Dir Wind Speed Gust Speed Precip Events Conditions
12:54 AM 34.0 °F - 25.0 °F 70% 29.56 in 10.0 mi Calm Calm - N/A   Overcast
1:54 AM 32.0 °F 28.7 °F 25.0 °F 75% 29.57 in 10.0 mi West 3.5 mph - N/A   Overcast
2:54 AM 33.1 °F - 23.0 °F 66% 29.57 in 10.0 mi Calm Calm - N/A   Overcast
3:54 AM 33.1 °F 28.7 °F 24.1 °F 70% 29.58 in 10.0 mi WNW 4.6 mph - N/A   Overcast
4:54 AM 34.0 °F - 25.0 °F 70% 29.59 in 10.0 mi Calm Calm - N/A   Overcast
5:54 AM 33.1 °F - 26.1 °F 75% 29.61 in 10.0 mi Calm Calm - N/A   Overcast
6:54 AM 32.0 °F 28.7 °F 26.1 °F 79% 29.63 in 10.0 mi NW 3.5 mph - N/A   Overcast
8:44 AM 33.8 °F 29.6 °F 24.8 °F 70% 29.65 in 10.0 mi Variable 4.6 mph - N/A   Overcast
8:54 AM 33.1 °F 26.9 °F 24.1 °F 70% 29.67 in 10.0 mi WNW 6.9 mph - N/A   Overcast
9:06 AM 33.8 °F 27.0 °F 23.0 °F 65% 29.66 in 10.0 mi NW 8.1 mph - N/A   Overcast
9:54 AM 34.0 °F 28.0 °F 23.0 °F 64% 29.68 in 10.0 mi NW 6.9 mph - N/A   Overcast
10:54 AM 37.9 °F 30.5 °F 24.1 °F 57% 29.69 in 10.0 mi NW 11.5 mph - N/A   Overcast
11:54 AM 37.9 °F 31.5 °F 23.0 °F 55% 29.70 in 10.0 mi North 9.2 mph 18.4 mph N/A   Overcast
12:54 PM 37.0 °F 29.8 °F 21.0 °F 52% 29.71 in 10.0 mi NNW 10.4 mph 17.3 mph N/A   Overcast
1:54 PM 39.0 °F 33.4 °F 19.9 °F 46% 29.71 in 10.0 mi North 8.1 mph 18.4 mph N/A   Overcast
2:54 PM 39.0 °F 33.4 °F 19.9 °F 46% 29.71 in 10.0 mi North 8.1 mph 18.4 mph N/A   Mostly Cloudy
3:54 PM 41.0 °F 33.5 °F 17.1 °F 38% 29.71 in 10.0 mi North 13.8 mph 23.0 mph N/A   Scattered Clouds
4:54 PM 39.9 °F 33.4 °F 16.0 °F 38% 29.72 in 10.0 mi NNW 10.4 mph 21.9 mph N/A   Scattered Clouds
5:54 PM 39.9 °F 34.5 °F 16.0 °F 38% 29.73 in 10.0 mi North 8.1 mph - N/A   Clear
6:54 PM 37.9 °F 34.4 °F 17.1 °F 43% 29.75 in 10.0 mi NNE 4.6 mph - N/A   Clear
7:54 PM 37.0 °F - 16.0 °F 42% 29.77 in 10.0 mi Calm Calm - N/A   Clear
8:54 PM 32.0 °F 26.4 °F 18.0 °F 56% 29.79 in 10.0 mi WSW 5.8 mph - N/A   Clear
9:54 PM 28.0 °F - 19.0 °F 69% 29.81 in 10.0 mi Calm Calm - N/A   Clear
10:54 PM 27.0 °F - 19.9 °F 75% 29.81 in 10.0 mi Calm Calm - N/A   Clear
11:54 PM 27.0 °F 21.6 °F 18.0 °F 69% 29.81 in 10.0 mi SW 4.6 mph - N/A   Clear